Regional Weather Roundup
Issued by NWS Grand Forks, ND

Home | Current Version | Previous Version | Text Only | Print | Product List | Glossary On
Versions: 1 2 3 4 5 6 7 8 9 10 11 12 13 14 15 16 17 18 19 20 21 22 23 24 25 26 27 28 29 30 31 32 33 34 35 36 37 38 39 40 41 42 43 44 45 46 47 48 49 50
000
ASUS43 KFGF 230031
RWRFGF
PRAIRIE TO PINES  WEATHER ROUNDUP
NATIONAL WEATHER SERVICE EASTERN NORTH DAKOTA/GRAND FORKS ND
700 PM CDT WED OCT 22 2014

 **SATELLITE DATA USED TO AUGMENT SKY COVER AT AUTOMATED STATIONS**
 *****  WEATHER ACROSS EASTERN NORTH DAKOTA  *****

CITY           SKY/WX    TMP DP  RH WIND       PRES   REMARKS
GRAND FORKS    CLOUDY    55  53  93 SW6       29.83R
6HR MIN TEMP:  55; 6HR MAX TEMP:  64; 6HR PCP:  0.04;

GRAND FRKS AFB CLOUDY    55  54  99 SW8       29.84R
GRAND FRKS NWS   N/A     54 N/A N/A SW7         N/A
DEVILS LAKE    CLOUDY    55  46  71 SW9       29.79R
6HR MIN TEMP:  54; 6HR MAX TEMP:  59; 6HR PCP:  0.04;

FARGO          CLOUDY    56  53  90 SW9       29.87R
WAHPETON ARPT  CLOUDY    55  52  88 SW6       29.91R
$$

 ***** WEATHER ACROSS CENTRAL AND WESTERN NORTH DAKOTA  *****

CITY           SKY/WX    TMP DP  RH WIND       PRES   REMARKS
BISMARCK       CLEAR     60  38  43 W10       29.87R
6HR MIN TEMP:  59; 6HR MAX TEMP:  70;

MINOT          CLOUDY    58  42  55 SW12      29.80R
6HR MIN TEMP:  58; 6HR MAX TEMP:  64;

JAMESTOWN      MOCLDY    52  49  89 S8        29.85S
6HR MIN TEMP:  52; 6HR MAX TEMP:  58; 6HR PCP:  0.09;

MINOT AFB      CLOUDY    56  45  64 W8        29.79R
GARRISON         N/A     58  41  53 W8        29.84R
WILLISTON      CLEAR     57  36  45 W9        29.82R
6HR MIN TEMP:  57; 6HR MAX TEMP:  63;

DICKINSON      CLEAR     50  33  52 W8        29.88R
6HR MIN TEMP:  50; 6HR MAX TEMP:  63;

HETTINGER      CLEAR     50  30  46 W6        29.94R
6HR MIN TEMP:  50; 6HR MAX TEMP:  64;

$$

 *****  OTHER AIRPORT OBSERVATIONS IN OUR AREA  *****

CITY           SKY/WX    TMP DP  RH WIND       PRES   REMARKS
WALHALLA         N/A     54  54 100 S6        29.78R
GRAFTON AIRPOR FAIR      54  54 100 S8        29.81R
VALLEY CITY AR FAIR      50  50 100 SW10      29.88R
CANDO          CLOUDY    57  45  62 W10       29.79R
CAVALIER APRT  MOCLDY    54  52  94 S8        29.79R
GWINNER        PTCLDY    55  55 100 SW9       29.92R
SHEYENNE NWR     N/A     55  54  95 SW6       29.95S
ROLLA          CLOUDY    55  43  62 W15G23    29.78R
 ***** THE ABOVE OBSERVATIONS ARE NON NWS ARE NOT QUALITY
       CONTROLLED AND MAY MIS-REPORT RAIN FOR SNOW...
$$

  *****  WEATHER ACROSS NORTHERN MINNESOTA  *****

CITY           SKY/WX    TMP DP  RH WIND       PRES   REMARKS
FLAG ISLAND    CLOUDY    54  46  76 S20       29.82S
WARROAD        CLOUDY    59  48  67 SE9G17    29.84S
ROSEAU         CLOUDY    61  48  63 S16G23    29.82S
HALLOCK        DRIZZLE   55  54  94 SW9       29.81R
THF RVR FALLS  CLOUDY    55  50  82 S10       29.85R
6HR MIN TEMP:  57; 6HR MAX TEMP:  63;

BAUDETTE       CLOUDY    58  43  57 S12G20    29.88S
6HR MIN TEMP:  58; 6HR MAX TEMP:  63;

WASKISH        CLOUDY    55  45  67 SE6G16    29.90S
CROOKSTON      CLOUDY    55  54  94 SW6       29.86R
STEPHEN NDAWN    N/A     55  54  94 S9          N/A
GREENBUSH NDAW   N/A     59  48  67 S9          N/A
$$
  *****  WEATHER ACROSS CENTRAL AND WEST MINNESOTA  *****

CITY           SKY/WX    TMP DP  RH WIND       PRES   REMARKS
FOSSTON        DRIZZLE   54  48  82 S9        29.88R
BEMIDJI        CLOUDY    56  43  61 SE12G17   29.90S
PARK RAPIDS    CLOUDY    57  43  59 SE14      29.91S
6HR MIN TEMP:  57; 6HR MAX TEMP:  61;

ELBOW LAKE     LGT RAIN  56  53  90 S12       29.92R
6HR MIN TEMP:  56; 6HR MAX TEMP:  67; 6HR PCP:  0.02;

WADENA         CLOUDY    59  45  58 S12       29.92R
DETROIT LAKES  CLOUDY    55  50  82 S8        29.91R
MOORHEAD       CLOUDY    57  57 100 SW6       29.89R
FERGUS FALLS   CLOUDY    55  54  94 SW5       29.92R
MORRIS MN      LGT RAIN  57  55  94 S7        29.92R
STAPLES        CLOUDY    55  43  62 SE10      29.94S
$$
  *****  WEATHER ELSEWHERE ACROSS MINNESOTA  *****

CITY           SKY/WX    TMP DP  RH WIND       PRES   REMARKS
DULUTH         PTCLDY    49  40  71 SE10      30.04S
6HR MIN TEMP:  49; 6HR MAX TEMP:  57;

INTRNTL FALLS  MOCLDY    56  42  59 S8G20     29.94R
6HR MIN TEMP:  56; 6HR MAX TEMP:  63;

ELY            CLEAR     46  36  66 S8        30.03R
CLOQUET        MOCLDY    48  43  81 SE5       30.04S
WHEATON        CLOUDY    54  52  94 S3        29.93R
BRAINERD       CLOUDY    54  42  64 SE9       29.98S
6HR MIN TEMP:  54; 6HR MAX TEMP:  58;

HIBBING        PTCLDY    54  38  54 S8        30.01R
6HR MIN TEMP:  53; 6HR MAX TEMP:  59;

ALEXANDRIA     CLOUDY    61  46  57 S16G22    29.95R
6HR MIN TEMP:  59; 6HR MAX TEMP:  63;

SAINT CLOUD    CLOUDY    58  43  57 SE10      29.99R
6HR MIN TEMP:  58; 6HR MAX TEMP:  63;

MINNEAPOLIS    CLOUDY    57  41  55 SE10      30.04S
6HR MIN TEMP:  53; 6HR MAX TEMP:  60; 6HR PCP: TRACE;

$$

  *****  WEATHER ACROSS SOUTH DAKOTA  *****

CITY           SKY/WX    TMP DP  RH WIND       PRES   REMARKS
SIOUX FALLS    CLOUDY    58  57  97 SW3       29.98R
6HR MIN TEMP:  58; 6HR MAX TEMP:  71; 6HR PCP:  0.29;

BROOKINGS      NOT AVBL
WATERTOWN      CLOUDY    55  53  93 W10       29.95R
6HR MIN TEMP:  54; 6HR MAX TEMP:  68; 6HR PCP:  0.19;

HURON          MOCLDY    56  52  86 W7        29.97R
6HR MIN TEMP:  55; 6HR MAX TEMP:  65; 6HR PCP:  0.08;

SISSETON         N/A     57  54  89 W13       29.90R
ABERDEEN       CLOUDY    53  50  89 S5        29.94R
6HR MIN TEMP:  53; 6HR MAX TEMP:  59; 6HR PCP:  0.05;

MITCHELL       MOCLDY    57  54  89 SW3       29.99R
PIERRE         CLEAR     59  41  51 CALM      29.94R
6HR MIN TEMP:  57; 6HR MAX TEMP:  65;

MOBRIDGE       CLEAR     59  38  45 W8        29.89R
RAPID CITY     CLEAR     55  34  45 NE6       30.00R
6HR MIN TEMP:  55; 6HR MAX TEMP:  65;

$$

  *****  SOME WEATHER IN NEARBY STATES *****

CITY           SKY/WX    TMP DP  RH WIND       PRES   REMARKS
GLASGOW MT     CLEAR     55  32  41 W8        29.85R
6HR MIN TEMP:  55; 6HR MAX TEMP:  64;

GREAT FALLS MT FAIR      56  32  40 SW18      29.86R
6HR MIN TEMP:  54; 6HR MAX TEMP:  59;

CHEYENNE WY    PTCLDY    59  27  29 NW5       30.12R
6HR MIN TEMP:  58; 6HR MAX TEMP:  66;

SCOTTSBLUFF NE PTCLDY    61  24  24 NW9       30.03R
6HR MIN TEMP:  61; 6HR MAX TEMP:  67;

OMAHA NE       CLOUDY    67  59  75 NW15      30.04R
6HR MIN TEMP:  69; 6HR MAX TEMP:  76;

DES MOINES IA  MOCLDY    62  46  55 SE15      30.12R
6HR MIN TEMP:  59; 6HR MAX TEMP:  67; 6HR PCP: TRACE;

DAVENPORT IA   CLEAR     51  34  52 SE7       30.21S
6HR MIN TEMP:  48; 6HR MAX TEMP:  61;

CHICAGO IL     CLEAR     46  37  71 E7        30.27F
6HR MIN TEMP:  46; 6HR MAX TEMP:  56;

EAU CLAIRE WI  CLOUDY    56  35  45 SE8       30.13S
6HR MIN TEMP:  55; 6HR MAX TEMP:  60;

LA CROSSE WI   CLEAR     56  36  47 SE9       30.16S
6HR MIN TEMP:  55; 6HR MAX TEMP:  61;

$$

  *****  SOME NATIONAL WEATHER *****

CITY           SKY/WX    TMP DP  RH WIND       PRES   REMARKS
LA GUARDIA NY  LGT RAIN  53  49  86 N17G26    29.77F
6HR MIN TEMP:  52; 6HR MAX TEMP:  59; 6HR PCP:  0.35;

RALEIGH NC     PTCLDY    57  41  55 W7        30.00R
6HR MIN TEMP:  56; 6HR MAX TEMP:  67;

ATLANTA GA     CLEAR     61  42  49 NW12      30.09R
6HR MIN TEMP:  60; 6HR MAX TEMP:  70;

NEW ORLEANS LA PTCLDY    71  52  50 NE5       30.03R
6HR MIN TEMP:  71; 6HR MAX TEMP:  79;

OKLAHOMA CITY  LGT RAIN  70  61  73 SW8       30.10R
6HR MIN TEMP:  70; 6HR MAX TEMP:  80; 6HR PCP: TRACE;

ALBUQUERQUE NM PTCLDY    72  37  28 W3        30.13S
6HR MIN TEMP:  63; 6HR MAX TEMP:  73;

SALT LAKE CITY MOCLDY    60  31  33 N9        30.14F
6HR MIN TEMP:  55; 6HR MAX TEMP:  63;




USA.gov is the U.S. government's official web portal to all federal, state and local government web resources and services.